Location: Paderno d�Adda
(45.6667°N, 9.4333°E)
Time: 14:01:24
(UTC+00:00)

USA 234 - Pass Details

Date: 19 September 2020
Orbit: 1102 x 1106 km, 123.0° (Epoch: 16 October)

Event Time Altitude Azimuth Distance (km) Brightness Sun altitude
Exits shadow 19:37:14 13° 56° (NE) 2,753 5.1 -23.0°
Maximum altitude 19:43:12 68° 138° (SE) 1,178 3.1 -23.9°
Drops below altitude 10° 19:49:42 10° 221° (SW) 2,957 5.6 -24.9°
Sets 19:52:12 0° 224° (SW) 3,912 6.3 -25.3°
